Location: Luz Observatory
(34.5000°N, 117.2833°W)
Time: 02:30:47
(UTC-07:00)

Daily predictions for brighter satellites

Satellite Brightness Start Highest point End
(mag) Time Altitude Azimuth Time Altitude Azimuth Time Altitude Azimuth
ATLAS 2AS CENTAUR R/B 3.9 00:42:53 42° NW 00:42:53 42° NW 00:50:00 10° NNE
Cosmos 2369 Rocket 4.4 01:02:22 10° NNW 01:04:06 21° N 01:04:06 21° N
ATLAS 3B R/B 4.3 01:07:01 10° NW 01:09:36 25° NW 01:09:36 25° NW
Cosmos 1943 Rocket 4.3 01:09:43 10° N 01:12:00 22° N 01:12:00 22° N
USA 215 4.1 01:43:35 10° NE 01:47:57 46° NE 01:47:57 46° NE
NOSS 3-2 (C) 4.2 02:02:57 10° NNW 02:09:26 65° N 02:09:26 65° N
Resurs 1-4 Rocket 4.2 02:13:30 10° NE 02:16:23 20° ENE 02:16:23 20° ENE
COSMOS 2455 4.0 02:16:56 10° NNW 02:20:33 37° N 02:20:33 37° N
ARIANE 5 R/B 4.5 02:21:57 10° NE 02:25:06 23° ENE 02:25:06 23° ENE
SL-16 R/B 4.0 02:25:02 27° E 02:26:45 32° ENE 02:32:04 10° N
CZ-2D R/B 3.5 02:33:53 10° NNE 02:37:38 32° ENE 02:37:38 32° ENE
Cosmos 1818 4.3 02:55:17 50° NNE 02:55:17 50° NNE 02:59:15 10° NNE
Lacrosse 5 rocket 3.3 03:03:43 28° N 03:03:43 28° N 03:06:27 10° NNE
Cosmos 1833 Rocket 4.3 03:03:41 24° ESE 03:04:34 25° ESE 03:09:05 10° NE
Cosmos 2082 Rocket 3.4 03:09:07 31° ESE 03:09:57 32° ESE 03:14:57 10° NE
GEOS 3 Rocket 3.7 03:10:18 10° NE 03:15:10 73° ENE 03:15:10 73° ENE
Cosmos 1707 4.1 03:29:01 38° NE 03:29:01 38° NE 03:31:43 10° NNE
COBE Rocket 3.9 03:25:54 10° N 03:30:28 75° N 03:30:28 75° N
Cosmos 1727 Rocket 4.0 03:29:47 53° SSE 03:31:16 73° E 03:37:25 10° N
Cosmos 2056 Rocket 4.4 03:31:13 10° NNW 03:34:35 37° NW 03:34:35 37° NW
Cosmos 1470 3.7 03:42:40 10° N 03:45:18 41° N 03:45:18 41° N
USA 161 3.7 03:49:23 25° NE 03:49:23 25° NE 03:51:01 10° N
ADEOS Rocket 3.4 03:45:01 10° N 03:51:05 53° WNW 03:52:29 45° WSW
Resurs 1-4 Rocket 2.7 03:52:35 10° N 03:57:25 38° WNW 03:57:27 38° WNW
Okean O Rocket 3.5 03:54:27 10° NE 03:58:11 26° E 04:01:40 11° SSE
IRS-1D 4.4 03:55:47 10° N 04:00:30 34° WNW 04:00:34 34° WNW
CENTAUR R/B 3.1 03:53:19 10° NW 04:01:17 62° WSW 04:09:34 10° SSE
USA 267 3.3 03:55:54 10° SE 04:02:26 82° NE 04:09:00 10° NW
UNKNOWN OBJECT B 3.2 04:00:15 10° N 04:03:49 51° NW 04:03:49 51° NW
ARIANE 5 R/B 3.4 04:00:39 10° N 04:05:17 33° WNW 04:05:28 33° WNW
ADEOS 4.5 04:02:44 10° N 04:07:16 31° WNW 04:07:30 31° WNW
Tiangong 1 2.7 04:09:10 25° ESE 04:09:10 25° ESE 04:10:32 10° ESE
OE (NEXTSAT) 4.5 04:08:07 72° E 04:08:07 72° E 04:11:27 10° ENE
Cosmos-2242 3.3 04:04:53 10° NNW 04:08:50 49° WNW 04:08:50 49° WNW
Delta 2 Rocket 3.1 04:10:20 57° ESE 04:10:20 57° ESE 04:13:05 10° ESE
SL-16 R/B 3.1 04:10:07 35° W 04:10:12 35° W 04:15:46 10° NNW
Cosmos 1452 Rocket 3.4 04:05:56 10° NNW 04:11:10 70° WSW 04:15:00 18° S
Cosmos 1605 Rocket 4.2 04:05:58 10° NNW 04:11:51 48° W 04:13:40 37° SW
Meteor 1-24 Rocket 3.8 04:09:13 24° S 04:12:38 74° E 04:18:17 10° NNE
COSMOS 2487 4.2 04:18:12 21° NW 04:18:12 21° NW 04:20:13 10° NNW
MOS 1 Rocket 3.1 04:13:17 10° N 04:17:41 69° WNW 04:19:08 42° SW
CZ-2D R/B 3.3 04:14:19 10° NNW 04:18:29 24° WNW 04:18:59 24° WNW
Cosmos 1697 Rocket 3.5 04:15:01 10° N 04:20:30 53° ENE 04:25:57 10° SE
MOZ.5/SAFIR/RUBIN 5/SL-8 3.8 04:19:05 37° SSW 04:20:37 56° W 04:25:14 10° NNW
Cosmos 1842 Rocket 3.5 04:17:28 10° N 04:21:55 89° E 04:25:40 14° S
Cosmos 1420 Rocket 3.9 04:19:31 10° NNW 04:24:51 83° WSW 04:30:07 10° SSE
Cosmos 1048 Rocket 4.0 04:24:45 35° SW 04:26:42 58° WNW 04:31:45 10° N
Timation 2 Rocket 4.0 04:23:26 24° SSW 04:27:41 84° WNW 04:34:12 10° NNE
NOSS 8 (F) 4.5 04:27:33 51° WSW 04:28:11 64° WNW 04:31:41 10° NNE
Cosmos 2221 4.0 04:24:50 10° N 04:28:49 37° E 04:32:46 10° SSE
PSLV R/B 3.9 04:27:38 10° NNE 04:31:48 87° ESE 04:34:24 22° SSW
Cosmos 2278 3.8 04:27:09 10° NNW 04:32:42 54° WSW 04:38:13 10° S
Intercosmos 25 4.1 04:27:25 10° NNW 04:33:09 46° W 04:34:51 30° SW
CZ-2D R/B 4.5 04:31:28 10° NNW 04:34:50 26° WNW 04:35:11 26° W
Cosmos 1000 Rocket 4.4 04:30:54 16° SSW 04:35:59 74° W 04:42:12 10° N
KM-V1 4.1 04:35:37 42° SSW 04:36:05 47° S 04:40:36 10° ESE
Cosmos 2369 4.0 04:35:58 10° NW 04:41:25 46° WSW 04:46:49 10° S
Cosmos 1656 3.5 04:38:53 10° NNW 04:44:14 64° WSW 04:49:36 10° S
Cosmos 2100 Rocket 3.9 04:39:57 10° NNW 04:46:03 63° W 04:52:05 10° S
Cosmos 2173 Rocket 3.9 04:42:00 10° NNW 04:48:12 67° W 04:54:17 10° S
Cosmos 1833 Rocket 3.4 04:45:24 22° WSW 04:48:14 36° WNW 04:53:23 10° N
DELTA 2 R/B(2) 3.5 04:50:06 42° NNW 04:50:06 42° NNW 04:51:43 10° ENE
IRS-1C Rocket 4.1 04:45:26 10° NNE 04:50:44 87° ESE 04:56:00 10° SSW
Intelsat 5-3 Rocket 4.1 04:50:49 18° SSW 04:51:14 18° SSW 04:53:41 10° SSE
Cosmos 972 Rocket 4.2 04:47:05 10° NNW 04:53:19 81° WSW 04:58:47 10° S
Cosmos 2082 Rocket 3.2 04:50:59 19° WSW 04:53:56 30° WNW 04:58:56 10° N
Landsat 4 4.2 04:51:56 15° SSW 04:54:37 37° W 04:58:07 10° NNW
Cosmos 1980 Rocket 2.8 04:50:03 10° NNW 04:55:42 63° ENE 05:01:16 10° SSE
Cosmos 1340 Rocket 3.7 04:52:35 10° S 04:56:27 49° E 05:00:18 10° NNE
ADEOS II 2.1 04:52:36 10° N 04:57:50 70° WNW 05:03:03 10° SSW
GPS 2-05 Rocket1 3.0 04:58:08 17° W 05:00:44 71° N 05:04:12 10° E
Orbus 7S? 2.3 04:59:05 10° NW 05:01:50 71° SW 05:04:35 10° SSE
CZ-4B R/B 3.1 05:02:11 10° N 05:07:29 68° WNW 05:12:43 10° SSW
Cosmos 2251 Rocket 3.5 05:03:44 10° SSW 05:09:01 87° WNW 05:14:21 10° NNE
CZ-4B R/B 3.8 05:10:32 10° N 05:14:35 37° WNW 05:18:44 10° SW
Meteor 1-21 Rocket 4.3 05:09:38 10° S 05:15:26 86° W 05:21:21 10° N
Okean-O 3.6 05:11:07 10° NNE 05:15:26 51° E 05:19:44 10° S
Okean 3 Rocket 4.1 05:11:23 10° SSW 05:15:28 38° W 05:19:37 10° N
BREEZE-M DEB 3.4 05:10:17 10° SW 05:15:49 45° SE 05:18:10 10° ENE
SL-16 R/B 4.3 05:13:09 10° N 05:18:14 32° ENE 05:23:15 10° SE
Meteor 1-31 Rocket 3.1 05:15:51 10° NNE 05:19:45 70° E 05:23:40 10° S
Cosmos 1908 3.2 05:16:29 10° N 05:20:22 88° WSW 05:24:14 10° S
Cosmos 1076 Rocket 3.8 05:18:23 10° SSW 05:22:27 47° W 05:26:34 10° N
Cosmos 1726 4.4 05:20:42 10° NNE 05:24:03 30° E 05:27:24 10° SE
Cosmos 2123 Rocket 4.2 05:18:01 10° SSW 05:24:09 54° W 05:30:19 10° N
Cosmos 2016 Rocket 4.4 05:20:38 10° NNW 05:26:32 45° W 05:32:29 10° SSW
Cosmos 1766 Rocket 3.7 05:25:07 10° SSW 05:29:32 61° W 05:33:58 10° N
Cosmos 494 Rocket 4.3 05:28:31 10° SW 05:33:24 45° WNW 05:38:19 10° N
Okean O Rocket 2.9 05:30:56 10° NNW 05:34:23 23° WNW 05:37:48 10° WSW
SL-14 R/B 4.4 05:30:56 10° SSE 05:34:38 47° E 05:38:23 10° NNE
CZ-4B R/B 3.7 05:31:54 10° N 05:35:47 76° WNW 05:39:30 10° SSW
